Simultaneous Nadir Overpasses (SNOs) Predictions

Prediction of SNOs between GOES-17 and NOAA-19 Satellite Orbit:

Table of predicted SNOs for the next 14.0 days since TLE Epoch: 2/10/2024
Index Date Time (GOES-17) GOES-17 Lat,Lon NOAA-19 Lat,Lon Distance(km) Time Diff (sec)
1 02/10/2024 15:55:26 0.01,-104.70 -0.43,-102.81 215.40 80
2 02/13/2024 04:15:09 -0.01,-104.70 -0.64,-107.50 319.94 80
3 02/14/2024 04:00:18 -0.02,-104.70 0.04,-104.54 19.00 80
4 02/15/2024 03:48:06 -0.02,-104.70 0.72,-101.57 357.77 80
5 02/17/2024 16:07:50 0.01,-104.72 0.37,-106.26 176.47 80
6 02/18/2024 15:58:18 0.01,-104.72 -0.31,-103.30 162.39 80
7 02/21/2024 04:18:00 -0.01,-104.72 -0.74,-107.99 372.13 80
8 02/22/2024 04:03:08 -0.01,-104.73 -0.11,-105.01 33.17 80
9 02/23/2024 03:50:56 -0.02,-104.73 0.59,-102.05 306.18 80
